Date,TemperatureHighF,TemperatureAvgF,TemperatureLowF,DewpointHighF,DewpointAvgF,DewpointLowF,HumidityHigh,HumidityAvg,HumidityLow,PressureMaxIn,PressureMinIn,WindSpeedMaxMPH,WindSpeedAvgMPH,GustSpeedMaxMPH,PrecipitationSumIn
2013-1-1,38.1,30.8,19.5,27.3,18.4,5.5,78,60,48,29.93,29.63,12,3,21,0.01
2013-1-2,30.5,18.2,5.6,15.4,8.5,2.3,92,67,50,30.27,29.75,7,2,16,0.00
2013-1-3,24.9,12.8,-0.9,10.1,0.1,-6.6,82,59,30,30.34,29.93,6,1,12,0.00
2013-1-4,39.8,25.9,8.5,24.9,18.4,6.7,93,75,52,30.17,29.63,7,1,17,0.01
2013-1-5,42.7,30.2,18.4,25.3,21.0,16.7,93,70,43,30.35,29.74,9,1,17,0.00
2013-1-6,44.1,31.1,20.0,31.1,26.1,18.3,94,83,56,30.26,29.57,6,1,13,0.00
2013-1-7,42.9,29.0,20.3,30.7,22.7,18.4,94,80,46,30.45,29.75,5,1,13,0.00
2013-1-8,47.5,33.6,19.4,30.6,27.1,17.6,94,79,50,30.46,29.20,7,1,17,0.00
2013-1-9,44.9,33.8,18.8,37.5,28.8,17.1,95,83,59,30.42,29.39,6,1,12,0.00
2013-1-10,47.5,39.8,27.5,29.9,25.4,23.2,88,57,41,30.25,29.44,10,2,26,0.00
2013-1-11,39.4,31.3,22.2,35.2,28.0,20.5,95,88,68,30.29,30.08,2,0,5,0.16
2013-1-12,42.9,39.6,36.3,41.8,38.5,35.0,96,96,95,30.14,30.04,2,0,2,0.04
2013-1-13,52.1,46.4,40.3,51.1,45.5,39.1,97,97,96,30.12,29.84,4,1,9,0.12
2013-1-14,61.2,51.4,41.2,54.1,43.8,29.5,97,77,43,29.92,29.43,6,2,15,0.00
2013-1-15,41.4,36.2,30.1,34.6,28.5,26.0,95,75,56,30.21,29.72,3,0,7,0.00
2013-1-16,33.2,31.9,29.5,31.5,29.7,25.8,95,92,75,30.22,29.88,3,0,6,0.04
2013-1-17,42.4,34.5,27.9,35.4,28.0,17.5,95,78,55,30.07,29.86,7,1,18,0.29
2013-1-18,29.7,21.7,15.2,17.5,4.2,-2.2,65,47,32,30.62,29.92,7,2,15,0.00
2013-1-19,49.5,37.4,19.9,34.0,24.8,6.5,79,61,42,30.49,29.57,9,2,16,0.06
2013-1-20,54.4,41.7,27.5,34.6,26.8,9.9,78,57,34,29.89,29.13,10,3,24,0.00
2013-1-21,27.8,23.8,16.1,20.7,11.6,6.0,93,61,42,30.27,29.89,6,1,14,0.00
2013-1-22,23.9,18.7,9.9,20.2,6.8,-3.2,93,63,34,30.30,29.88,8,2,17,0.00
2013-1-23,15.6,9.7,4.5,2.1,-4.7,-8.4,77,52,37,30.35,30.22,9,3,20,0.00
2013-1-24,19.5,9.8,-0.2,-4.5,-6.9,-9.1,75,48,30,30.44,30.16,14,3,24,0.00
2013-1-25,23.0,14.9,5.4,14.2,-3.0,-9.1,93,47,27,30.49,30.25,6,2,16,0.00
2013-1-26,25.2,15.4,5.9,13.8,3.8,-6.1,93,64,34,30.45,30.17,7,2,17,0.00
2013-1-27,30.9,19.0,11.6,6.4,3.0,0.1,67,51,30,30.68,30.44,6,2,16,0.00
2013-1-28,31.5,23.0,13.5,25.4,14.0,2.8,94,71,35,30.67,30.18,3,0,6,0.00
2013-1-29,34.4,30.0,25.2,32.8,28.6,23.7,95,94,93,30.39,30.18,2,0,4,0.19
2013-1-30,60.7,48.9,32.4,58.7,47.7,31.1,98,96,90,30.35,29.49,5,2,28,0.15
2013-1-31,61.2,48.1,30.3,60.2,39.3,16.3,98,74,42,29.64,28.98,34,8,36,0.74